Regional Weather Roundup
Issued by NWS Upton, NY

Current Version | Previous Version | Text Only | Print | Product List | Glossary On
Versions: 1 2 3 4 5 6 7 8 9 10 11 12 13 14 15 16 17 18 19 20 21 22 23 24 25 26 27
000
ASUS41 KOKX 290104
RWROKX

REGIONAL WEATHER ROUNDUP
NATIONAL WEATHER SERVICE NEW YORK NY
900 PM EDT THU JUL 28 2016

NOTE: "FAIR" INDICATES FEW OR NO CLOUDS BELOW 12,000 FEET WITH NO
SIGNIFICANT WEATHER AND/OR OBSTRUCTIONS TO VISIBILITY.

NYZ071-072-176-178-NJZ106-104-290200-
NEW YORK CITY METRO AREA

CITY           SKY/WX    TMP DP  RH WIND       PRES   REMARKS
Central Park   CLOUDY    79  67  66 W3        29.90S
LaGuardia APRT CLOUDY    82  68  62 W5        29.86S
Kennedy INTL   CLOUDY    81  68  64 W10       29.87S
Newark/Liberty LGT RAIN  79  68  69 W7        29.87R
Bronx Bot Gard   N/A     79  66  65 SW5       29.89R
Wall St Helipt CLOUDY    81  70  69 W6        29.88S
Teterboro      MOCLDY    82  68  62 VRB5      29.86S
$$

NYZ177-179-078>081-290200-
LONG ISLAND NEW YORK

CITY           SKY/WX    TMP DP  RH WIND       PRES   REMARKS
Farmingdale    CLOUDY    81  68  64 W6        29.87S
MacArthur/ISP  CLOUDY    80  70  71 W6        29.87R
Shirley        CLOUDY    79  75  87 SW7       29.87S
Riverhead      NOT AVBL
Westhampton    CLOUDY    78  75  90 SW6       29.89S
Southhampton     N/A     77  75  94 SW3       29.83S
Bridgehampton    N/A     77  73  88 CALM      29.87S
East Hampton   FAIR      76  74  93 SW5       29.87S
Montauk          N/A     75  75 100 VRB3      29.89S
$$

NYZ052-065-067-290200-
HUDSON VALLEY

CITY           SKY/WX    TMP DP  RH WIND       PRES   REMARKS
White Plains   CLOUDY    79  68  69 W7        29.86F
Newburgh       MOCLDY    73  72  94 NW8       29.89F
Montgomery     CLOUDY    73  70  90 CALM      29.87F
Poughkeepsie   CLOUDY    78  68  71 VRB3      29.85S
Albany         CLOUDY    79  66  64 N6        29.86S
$$

NJZ001-105-106-008-010-013-015-019>022-104-290200-
NEW JERSEY

CITY           SKY/WX    TMP DP  RH WIND       PRES   REMARKS
Newark/Liberty LGT RAIN  79  68  69 W7        29.87R
Teterboro      MOCLDY    82  68  62 VRB5      29.86S
Caldwell       CLOUDY    78  71  79 CALM      29.88S
Morristown     PTCLDY    77  72  83 CALM      29.89S
Somerville     CLOUDY    75  73  93 CALM      29.87R
Linden         FAIR      78  67  68 NW6       29.89S
Sussex         LGT RAIN  72  72 100 CALM      29.89F FOG
Abdover          N/A     74  71  91 CALM      29.91R
Trenton        CLOUDY    75  71  87 N5        29.88R
Millville      CLOUDY    74  71  91 SE5       29.87R
Atlantic City  CLOUDY    75  72  90 SE8       29.86F
Wrightstown    NOT AVBL
Toms River     LGT RAIN  73  72  96 S3        29.87S
Belmar         CLOUDY    73  70  90 CALM      29.89R
$$

PAZ047>061-062-071-290200-
EASTERN PENNSYLVANIA

CITY           SKY/WX    TMP DP  RH WIND       PRES   REMARKS
Philadelphia   LGT RAIN  76  72  87 E5        29.88R
Allentown      CLOUDY    75  71  87 CALM      29.90S
Scranton       CLOUDY    76  68  76 CALM      29.90S
$$

CTZ002-004>006-009-010-012-RIZ004-006-007-MAZ004-011-015-290200-
SOUTHERN NEW ENGLAND
 IN CT

CITY           SKY/WX    TMP DP  RH WIND       PRES   REMARKS
Bradley INTL   CLOUDY    83  68  60 S8        29.86R
Hartford       CLOUDY    85  70  60 S7        29.85R
Danbury        CLOUDY    79  68  69 W6        29.88F
Wtrbury/Oxford MOCLDY    79  64  61 SW5       29.92S
Bridgeport     CLOUDY    81  72  74 SW7       29.85F
Meriden        CLOUDY    81  70  69 S3        29.87R
New Haven      CLOUDY    79  72  79 SW5       29.87S
Chester        FAIR      77  72  83 VRB3      29.88S
Groton         PTCLDY    77  72  84 S3        29.87S
Wilimantic     CLOUDY    82  72  71 SE5       29.88S

 IN RI

CITY           SKY/WX    TMP DP  RH WIND       PRES   REMARKS
Providence     CLOUDY    79  71  76 S6        29.88S
Block Island   CLOUDY    76  75  97 SW7       29.89S FOG
Westerly       MOCLDY    77  72  84 S7        29.88F HAZE
 IN MA

CITY           SKY/WX    TMP DP  RH WIND       PRES   REMARKS
Boston         CLOUDY    81  69  67 S13       29.85S
Worchester     LGT RAIN  72  65  78 SW10      29.91F
Westfield      CLOUDY    83  61  47 CALM      29.84S
Provincetown   MOCLDY    74  72  93 S9        29.89S
Nantucket      PTCLDY    71  69  93 S7        29.90S
$$

ANZ330-335-338-340-345-350-353-355-290200-
COASTAL MARINE OBSERVATIONS


STATION/POSITION TIME  SKY/WX   TEMP    WIND        PRES    VSBY  WAVE
                                AIR SEA DIR/SP/G                  HT/PER
                 (UTC)          (F)     (DEG/KT/KT) (MB)    (MI)  (FT/S)
NY HARB ENTRANCE 2350            78 74  230/ 12/ 14 1010.6          2/ 3
20S FIRE ISLAND  2350            78 78  230/  6/  8 1010.9          1/ 6
GREAT SOUTH BAY  0030            80 83  260/ 10/ 12   N/A
23 SSW MONTAUK P NOT AVBL
15 E BARNEGAT LI 0000               79                N/A           1/ 6
HUDSON CANYON    2350            80 81              1011.6          1/ 8
KINGS POINT      0000            79 73                N/A
EXECUTION ROCKS  NOT AVBL
CENTRAL LI SOUND NOT AVBL
EASTERN LI SOUND NOT AVBL
ROBBINS REEF     0000            79                   N/A
$$


>>>>>>>>>>>>>>>>>>>>>>>>>>>> KEY <<<<<<<<<<<<<<<<<<<<<<<<<<<
>                                                          <
>     SKY/WX - Sky Condition/Present Weather               <
>     TMP    - Temperature in Fahrenheit                   <
>     DP     - Dew Point in Fahrenheit                     <
>     RH     - Relative Humidity in Percent                <
>     WIND   - Direction (from) and Speed in MPH           <
>     PRES   - Mean Sea Level Pressure (inches of Hg)      <
>     WCI    - Wind Chill Index                            <
>     VSB    - VISIBILITY IN MILES                         <
>     HX     - HEAT INDEX                                  <
>     TC     - TEMPERATURE IN CELSIUS                      <
>     VRB    - VARIABLE WIND DIRECTION                     <
>                                                          <
>>>>>>>>>>>>>>>>>>>>>>>>>>>> KEY <<<<<<<<<<<<<<<<<<<<<<<<<<<




USA.gov is the U.S. government's official web portal to all federal, state and local government web resources and services.